Location: Gro�wechsungen
(51.4926°N, 10.6901°E)
Time: 14:30:26
(UTC+00:00)

Cosmos 2082 Rocket - Pass Details

Date: 18 January 2021
Orbit: 832 x 854 km, 71.0° (Epoch: 04 March)

Event Time Altitude Azimuth Distance (km) Brightness Sun altitude
Rises 16:31:42 0° 320° (NW) 3,434 5.6 -7.5°
Reaches altitude 10° 16:36:12 10° 353° (N) 2,499 4.5 -8.2°
Maximum altitude 16:38:07 12° 13° (NNE) 2,385 4.2 -8.5°
Drops below altitude 10° 16:40:02 10° 32° (NNE) 2,498 4.2 -8.7°
Enters shadow 16:41:13 - 43° (NE) 2,668 4.2 -8.9°
